Volver al catálogo

FENGYUN 1C DEB

ActivoPO
NORAD 32169·DEBRIS·🇨🇳 China

Lanzado May 10, 1999 desde Taiyuan Satellite Launch Center

Loading…

Próximos Pases (próximas 24 horas)

TLE

ActualizadoSource: Space-Track

Época: Sep 13, 2026, 13:12 UTC

1 32169U 99025CTP 26256.55065050  .00015414  00000-0  19647-2 0  9997
2 32169  98.5390 105.7338 0029067 338.2187  21.7786 14.81312283  6673

Sigue FENGYUN 1C DEB en tiempo real con AllMySat

Download on the App Store